| time (UTC) | temp F | wind direction | speed knots | gust knots | rain 1hr in | rain 24hr in | rain mn in | humidity % | barometer mb |
| 20260504193017 | 84 | 143 | 1.7 | 7.0 | 0.00 | 0.00 | 0.00 | 84 | 1009.1 |
| 20260504192514 | 84 | 80 | 3.5 | 5.2 | 0.00 | 0.00 | 0.00 | 84 | 1009.0 |
| 20260504192012 | 84 | 54 | 6.1 | 7.0 | 0.00 | 0.00 | 0.00 | 84 | 1009.1 |
| 20260504191509 | 84 | 118 | 4.3 | 7.8 | 0.00 | 0.00 | 0.00 | 84 | 1008.9 |
| 20260504191005 | 84 | 90 | 2.6 | 7.0 | 0.00 | 0.00 | 0.00 | 84 | 1009.0 |
| 20260504190501 | 84 | 73 | 4.3 | 5.2 | 0.00 | 0.00 | 0.00 | 84 | 1009.0 |
| 20260504185957 | 84 | 67 | 7.8 | 8.7 | 0.00 | 0.00 | 0.00 | 84 | 1008.9 |
| 20260504185455 | 84 | 129 | 2.6 | 14.8 | 0.00 | 0.00 | 0.00 | 84 | 1009.0 |
| 20260504184951 | 84 | 60 | 4.3 | 6.1 | 0.00 | 0.00 | 0.00 | 84 | 1009.1 |
| 20260504184447 | 84 | 98 | 3.5 | 7.8 | 0.00 | 0.00 | 0.00 | 83 | 1009.1 |
| 20260504183942 | 84 | 53 | 0.9 | 9.6 | 0.00 | 0.00 | 0.00 | 83 | 1009.1 |
| 20260504183440 | 84 | 63 | 3.5 | 6.1 | 0.00 | 0.00 | 0.00 | 83 | 1009.2 |
| 20260504182938 | 84 | 86 | 5.2 | 9.6 | 0.00 | 0.00 | 0.00 | 83 | 1009.4 |
| 20260504182434 | 84 | 50 | 5.2 | 7.8 | 0.00 | 0.00 | 0.00 | 83 | 1009.4 |
| 20260504181932 | 84 | 101 | 8.7 | 12.2 | 0.00 | 0.00 | 0.00 | 83 | 1009.3 |
| 20260504181429 | 84 | 106 | 6.1 | 7.8 | 0.00 | 0.00 | 0.00 | 82 | 1009.2 |
| 20260504180927 | 84 | 68 | 3.5 | 7.8 | 0.00 | 0.00 | 0.00 | 82 | 1009.4 |
| 20260504180426 | 84 | 86 | 3.5 | 5.2 | 0.00 | 0.00 | 0.00 | 82 | 1009.7 |
| 20260504175924 | 84 | 112 | 0.9 | 5.2 | 0.00 | 0.00 | 0.00 | 82 | 1009.8 |
| 20260504175420 | 84 | 97 | 6.1 | 8.7 | 0.00 | 0.00 | 0.00 | 82 | 1009.8 |
| 20260504174918 | 84 | 99 | 3.5 | 8.7 | 0.00 | 0.00 | 0.00 | 82 | 1009.6 |
| 20260504174415 | 84 | 78 | 2.6 | 7.0 | 0.00 | 0.00 | 0.00 | 81 | 1009.7 |
| 20260504173913 | 85 | 55 | 2.6 | 7.8 | 0.00 | 0.00 | 0.00 | 81 | 1009.7 |
| 20260504173409 | 85 | 98 | 1.7 | 7.0 | 0.00 | 0.00 | 0.00 | 81 | 1009.8 |
| 20260504172907 | 85 | 113 | 3.5 | 5.2 | 0.00 | 0.00 | 0.00 | 81 | 1009.9 |
| 20260504172402 | 85 | 101 | 2.6 | 5.2 | 0.00 | 0.00 | 0.00 | 81 | 1009.9 |
| 20260504171859 | 85 | 98 | 5.2 | 7.0 | 0.00 | 0.00 | 0.00 | 81 | 1010.0 |
| 20260504171356 | 85 | 37 | 3.5 | 7.0 | 0.00 | 0.00 | 0.00 | 81 | 1009.9 |
| 20260504170853 | 85 | 93 | 5.2 | 8.7 | 0.00 | 0.00 | 0.00 | 81 | 1010.2 |
| 20260504170350 | 85 | 122 | 3.5 | 12.2 | 0.00 | 0.00 | 0.00 | 81 | 1010.4 |
| 20260504160308 | 86 | 132 | 3.5 | 9.6 | 0.00 | 0.00 | 0.00 | 80 | 1010.6 |
| 20260504150733 | 86 | 150 | 3.5 | 13.0 | 0.00 | 0.00 | 0.00 | 80 | 1011.0 |
| 20260504150230 | 86 | 227 | 2.6 | 8.7 | 0.00 | 0.00 | 0.00 | 80 | 1011.1 |
| 20260504141159 | 86 | 46 | 7.8 | 11.3 | 0.00 | 0.00 | 0.00 | 79 | 1010.2 |
| 20260504140656 | 86 | 69 | 5.2 | 12.2 | 0.00 | 0.00 | 0.00 | 79 | 1010.3 |
| 20260504140152 | 86 | 145 | 7.8 | 13.0 | 0.00 | 0.00 | 0.00 | 79 | 1010.1 |
| 20260504130620 | 86 | 93 | 8.7 | 11.3 | 0.00 | 0.00 | 0.00 | 79 | 1009.8 |
| 20260504130117 | 86 | 76 | 4.3 | 11.3 | 0.00 | 0.00 | 0.00 | 79 | 1009.8 |
| 20260504110508 | 88 | 110 | 7.0 | 8.7 | 0.00 | 0.00 | 0.00 | 75 | 1008.3 |
| 20260504100430 | 90 | 154 | 4.3 | 9.6 | 0.00 | 0.00 | 0.00 | 73 | 1007.1 |
| 20260504081823 | 91 | 153 | 5.2 | 14.8 | 0.00 | 0.00 | 0.00 | 70 | 1007.1 |
| 20260504081320 | 90 | 140 | 10.4 | 15.6 | 0.00 | 0.00 | 0.00 | 71 | 1007.1 |
| 20260504080816 | 90 | 108 | 7.0 | 13.0 | 0.00 | 0.00 | 0.00 | 72 | 1007.0 |
| 20260504080313 | 90 | 123 | 9.6 | 18.2 | 0.00 | 0.00 | 0.00 | 71 | 1007.0 |
| 20260504070235 | 95 | 96 | 1.7 | 1.7 | 0.00 | 0.00 | 0.00 | 60 | 1008.0 |
| 20260504060156 | 93 | 10 | 2.6 | 2.6 | 0.00 | 0.00 | 0.00 | 64 | 1009.5 |
| 20260504050623 | 93 | 42 | 4.3 | 7.8 | 0.00 | 0.00 | 0.00 | 65 | 1010.6 |
| 20260504050120 | 93 | 18 | 1.7 | 5.2 | 0.00 | 0.00 | 0.00 | 64 | 1010.5 |
| 20260504045617 | 92 | 7 | 1.7 | 2.6 | 0.00 | 0.00 | 0.00 | 65 | 1010.6 |
| 20260504045112 | 93 | 40 | 3.5 | 7.0 | 0.00 | 0.00 | 0.00 | 64 | 1010.6 |
| 20260504044611 | 93 | 50 | 5.2 | 7.8 | 0.00 | 0.00 | 0.00 | 65 | 1010.8 |
| 20260504044107 | 92 | 72 | 5.2 | 7.8 | 0.00 | 0.00 | 0.00 | 66 | 1010.9 |
| 20260504043604 | 92 | 41 | 5.2 | 8.7 | 0.00 | 0.00 | 0.00 | 66 | 1011.0 |
| 20260504043102 | 93 | 68 | 1.7 | 8.7 | 0.00 | 0.00 | 0.00 | 65 | 1011.1 |
| 20260504042558 | 92 | 21 | 2.6 | 6.1 | 0.00 | 0.00 | 0.00 | 65 | 1011.1 |
| 20260504042055 | 92 | 328 | 1.7 | 5.2 | 0.00 | 0.00 | 0.00 | 65 | 1011.1 |
| 20260504041551 | 92 | 29 | 2.6 | 7.0 | 0.00 | 0.00 | 0.00 | 65 | 1011.2 |
| 20260504041048 | 93 | 147 | 4.3 | 6.1 | 0.00 | 0.00 | 0.00 | 63 | 1011.2 |
| 20260504040545 | 92 | 85 | 0.9 | 1.7 | 0.00 | 0.00 | 0.00 | 64 | 1011.4 |
| 20260504040041 | 91 | 79 | 6.1 | 7.8 | 0.00 | 0.00 | 0.00 | 65 | 1011.4 |
| 20260504035538 | 91 | 113 | 4.3 | 7.0 | 0.00 | 0.00 | 0.00 | 64 | 1011.4 |
| 20260504035035 | 91 | 177 | 1.7 | 7.8 | 0.00 | 0.00 | 0.00 | 66 | 1011.5 |
| 20260504034533 | 91 | 92 | 3.5 | 11.3 | 0.00 | 0.00 | 0.00 | 66 | 1011.5 |
| 20260504034029 | 91 | 59 | 3.5 | 9.6 | 0.00 | 0.00 | 0.00 | 66 | 1011.5 |
| 20260504033528 | 91 | 25 | 7.0 | 13.0 | 0.00 | 0.00 | 0.00 | 66 | 1011.6 |
| 20260504033024 | 89 | 46 | 5.2 | 7.0 | 0.00 | 0.00 | 0.00 | 68 | 1011.7 |
| 20260504032521 | 91 | 55 | 7.8 | 9.6 | 0.00 | 0.00 | 0.00 | 66 | 1011.7 |
| 20260504032018 | 91 | 36 | 1.7 | 5.2 | 0.00 | 0.00 | 0.00 | 67 | 1011.9 |
| 20260504031515 | 90 | 22 | 3.5 | 6.1 | 0.00 | 0.00 | 0.00 | 67 | 1012.0 |
| 20260504031011 | 89 | 224 | 1.7 | 7.0 | 0.00 | 0.00 | 0.00 | 69 | 1012.0 |
| 20260504030509 | 89 | 102 | 4.3 | 11.3 | 0.00 | 0.00 | 0.00 | 69 | 1012.0 |
| 20260504030005 | 89 | 159 | 3.5 | 7.8 | 0.00 | 0.00 | 0.00 | 70 | 1012.1 |
| 20260504025502 | 89 | 42 | 5.2 | 11.3 | 0.00 | 0.00 | 0.00 | 69 | 1012.3 |
| 20260504024958 | 89 | 42 | 2.6 | 7.0 | 0.00 | 0.00 | 0.00 | 70 | 1012.1 |
| 20260504024455 | 88 | 114 | 3.5 | 7.8 | 0.00 | 0.00 | 0.00 | 70 | 1012.3 |
| 20260504023953 | 89 | 27 | 2.6 | 2.6 | 0.00 | 0.00 | 0.00 | 70 | 1012.3 |
| 20260504023449 | 89 | 3 | 5.2 | 6.1 | 0.00 | 0.00 | 0.00 | 71 | 1012.3 |
| 20260504022944 | 88 | 31 | 7.0 | 7.8 | 0.00 | 0.00 | 0.00 | 71 | 1012.3 |
| 20260504022441 | 87 | 78 | 3.5 | 6.1 | 0.00 | 0.00 | 0.00 | 73 | 1012.1 |
| 20260504021938 | 87 | 28 | 3.5 | 7.8 | 0.00 | 0.00 | 0.00 | 73 | 1012.3 |
| 20260504021435 | 88 | 351 | 1.7 | 8.7 | 0.00 | 0.00 | 0.00 | 73 | 1012.3 |
| 20260504020932 | 87 | 109 | 2.6 | 5.2 | 0.00 | 0.00 | 0.00 | 73 | 1012.4 |
| 20260504020429 | 89 | 7 | 6.1 | 7.8 | 0.00 | 0.00 | 0.00 | 72 | 1012.4 |
| 20260504015926 | 87 | 38 | 6.1 | 7.8 | 0.00 | 0.00 | 0.00 | 73 | 1012.4 |
| 20260504015421 | 88 | 38 | 3.5 | 5.2 | 0.00 | 0.00 | 0.00 | 72 | 1012.4 |
| 20260504014917 | 88 | 69 | 3.5 | 7.0 | 0.00 | 0.00 | 0.00 | 72 | 1012.2 |
| 20260504014414 | 87 | 30 | 3.5 | 7.8 | 0.00 | 0.00 | 0.00 | 72 | 1012.2 |
| 20260504013911 | 88 | 51 | 5.2 | 7.8 | 0.00 | 0.00 | 0.00 | 72 | 1012.2 |
| 20260504013409 | 87 | 88 | 5.2 | 6.1 | 0.00 | 0.00 | 0.00 | 73 | 1012.3 |
| 20260504012905 | 86 | 51 | 7.8 | 12.2 | 0.00 | 0.00 | 0.00 | 73 | 1012.1 |
| 20260504012403 | 87 | 26 | 5.2 | 9.6 | 0.00 | 0.00 | 0.00 | 73 | 1012.1 |
| 20260504011900 | 87 | 348 | 1.7 | 6.1 | 0.00 | 0.00 | 0.00 | 74 | 1011.9 |
| 20260504011357 | 87 | 29 | 5.2 | 7.8 | 0.00 | 0.00 | 0.00 | 73 | 1011.9 |
| 20260504010853 | 87 | 55 | 4.3 | 6.1 | 0.00 | 0.00 | 0.00 | 73 | 1011.8 |
| 20260504010348 | 86 | 24 | 2.6 | 7.0 | 0.00 | 0.00 | 0.00 | 73 | 1011.9 |
| 20260504005845 | 86 | 49 | 5.2 | 9.6 | 0.00 | 0.00 | 0.00 | 74 | 1011.8 |
| 20260504005341 | 86 | 62 | 3.5 | 9.6 | 0.00 | 0.00 | 0.00 | 74 | 1011.6 |
| 20260504004839 | 86 | 2 | 3.5 | 6.1 | 0.00 | 0.00 | 0.00 | 75 | 1011.6 |
| 20260504004337 | 86 | 37 | 3.5 | 7.0 | 0.00 | 0.00 | 0.00 | 75 | 1011.6 |
| 20260504003833 | 87 | 53 | 5.2 | 5.2 | 0.00 | 0.00 | 0.00 | 74 | 1011.6 |
| 20260504003330 | 86 | 61 | 0.9 | 5.2 | 0.00 | 0.00 | 0.00 | 76 | 1011.7 |
| 20260504002827 | 86 | 62 | 3.5 | 5.2 | 0.00 | 0.00 | 0.00 | 76 | 1011.5 |
| 20260504002323 | 86 | 62 | 3.5 | 5.2 | 0.00 | 0.00 | 0.00 | 76 | 1011.6 |
| 20260504001821 | 86 | 42 | 0.9 | 6.1 | 0.00 | 0.00 | 0.00 | 78 | 1011.6 |
| 20260504001318 | 85 | 50 | 5.2 | 7.0 | 0.00 | 0.00 | 0.00 | 78 | 1011.5 |
| 20260504000815 | 85 | 38 | 1.7 | 2.6 | 0.00 | 0.00 | 0.00 | 79 | 1011.2 |
| 20260504000312 | 85 | 79 | 0.9 | 3.5 | 0.00 | 0.00 | 0.00 | 80 | 1011.4 |
| 20260503235810 | 85 | 92 | 0.9 | 7.0 | 0.00 | 0.00 | 0.00 | 80 | 1011.2 |
| 20260503235307 | 85 | 106 | 4.3 | 7.0 | 0.00 | 0.00 | 0.00 | 79 | 1011.2 |
| 20260503234804 | 85 | 36 | 3.5 | 6.1 | 0.00 | 0.00 | 0.00 | 79 | 1011.0 |
| 20260503234302 | 85 | 67 | 3.5 | 7.0 | 0.00 | 0.00 | 0.00 | 79 | 1011.0 |
| 20260503233759 | 85 | 59 | 5.2 | 7.8 | 0.00 | 0.00 | 0.00 | 80 | 1011.0 |
| 20260503233255 | 85 | 20 | 4.3 | 6.1 | 0.00 | 0.00 | 0.00 | 81 | 1011.0 |
| 20260503232753 | 85 | 46 | 0.9 | 1.7 | 0.00 | 0.00 | 0.00 | 82 | 1010.9 |
| 20260503232250 | 84 | 64 | 5.2 | 8.7 | 0.00 | 0.00 | 0.00 | 82 | 1010.8 |
| 20260503231748 | 84 | 104 | 3.5 | 6.1 | 0.00 | 0.00 | 0.00 | 84 | 1010.8 |
| 20260503231245 | 84 | 91 | 2.6 | 6.1 | 0.00 | 0.00 | 0.00 | 85 | 1010.9 |
| 20260503230740 | 84 | 66 | 0.0 | 3.5 | 0.00 | 0.00 | 0.00 | 86 | 1010.8 |
| 20260503230238 | 84 | 102 | 1.7 | 5.2 | 0.00 | 0.00 | 0.00 | 86 | 1010.7 |
| 20260503225735 | 84 | 73 | 0.9 | 0.9 | 0.00 | 0.00 | 0.00 | 86 | 1010.7 |
| 20260503225229 | 84 | 81 | 3.5 | 5.2 | 0.00 | 0.00 | 0.00 | 86 | 1010.6 |
| 20260503224726 | 84 | 7 | 1.7 | 3.5 | 0.00 | 0.00 | 0.00 | 87 | 1010.1 |
| 20260503224224 | 84 | 49 | 0.9 | 5.2 | 0.00 | 0.00 | 0.00 | 87 | 1010.3 |
| 20260503223721 | 84 | 45 | 0.9 | 5.2 | 0.00 | 0.00 | 0.00 | 87 | 1010.3 |
| 20260503223219 | 84 | 89 | 1.7 | 3.5 | 0.00 | 0.00 | 0.00 | 87 | 1009.9 |
| 20260503222716 | 84 | 99 | 1.7 | 6.1 | 0.00 | 0.00 | 0.00 | 87 | 1010.1 |
| 20260503222213 | 84 | 123 | 3.5 | 8.7 | 0.00 | 0.00 | 0.00 | 87 | 1010.0 |
| 20260503221711 | 84 | 38 | 1.7 | 5.2 | 0.00 | 0.00 | 0.00 | 87 | 1010.0 |
| 20260503221208 | 84 | 49 | 3.5 | 5.2 | 0.00 | 0.00 | 0.00 | 87 | 1010.1 |
| 20260503220705 | 84 | 88 | 2.6 | 2.6 | 0.00 | 0.00 | 0.00 | 87 | 1009.8 |
| 20260503220202 | 84 | 43 | 3.5 | 6.1 | 0.00 | 0.00 | 0.00 | 86 | 1009.9 |
| 20260503215659 | 84 | 32 | 0.9 | 3.5 | 0.00 | 0.00 | 0.00 | 86 | 1010.0 |
| 20260503215155 | 84 | 118 | 3.5 | 6.1 | 0.00 | 0.00 | 0.00 | 86 | 1010.0 |
| 20260503214654 | 84 | 74 | 2.6 | 7.8 | 0.00 | 0.00 | 0.00 | 86 | 1009.8 |
| 20260503214149 | 84 | 36 | 0.9 | 3.5 | 0.00 | 0.00 | 0.00 | 86 | 1009.8 |
| 20260503213649 | 84 | 32 | 0.9 | 2.6 | 0.00 | 0.00 | 0.00 | 86 | 1009.8 |
| 20260503213145 | 84 | 13 | 0.0 | 1.7 | 0.00 | 0.00 | 0.00 | 86 | 1009.7 |
| 20260503212643 | 84 | 84 | 0.9 | 3.5 | 0.00 | 0.00 | 0.00 | 86 | 1009.8 |
| 20260503212140 | 84 | 85 | 1.7 | 3.5 | 0.00 | 0.00 | 0.00 | 86 | 1009.7 |
| 20260503211638 | 84 | 25 | 0.9 | 2.6 | 0.00 | 0.00 | 0.00 | 86 | 1009.6 |
| 20260503211132 | 84 | 23 | 0.0 | 0.9 | 0.00 | 0.00 | 0.00 | 86 | 1009.5 |
| 20260503210629 | 84 | 45 | 1.7 | 2.6 | 0.00 | 0.00 | 0.00 | 86 | 1009.4 |
| 20260503210126 | 84 | 30 | 0.9 | 2.6 | 0.00 | 0.00 | 0.00 | 87 | 1009.5 |
| 20260503205622 | 84 | 131 | 2.6 | 2.6 | 0.00 | 0.00 | 0.00 | 87 | 1009.2 |
| 20260503205118 | 84 | 89 | 0.9 | 1.7 | 0.00 | 0.00 | 0.00 | 86 | 1009.2 |
| 20260503204615 | 84 | 71 | 0.9 | 2.6 | 0.00 | 0.00 | 0.00 | 86 | 1009.2 |
| 20260503204113 | 84 | 49 | 0.9 | 3.5 | 0.00 | 0.00 | 0.00 | 86 | 1009.1 |
| 20260503203609 | 84 | 45 | 2.6 | 2.6 | 0.00 | 0.00 | 0.00 | 86 | 1009.2 |
| 20260503203107 | 84 | 50 | 0.9 | 2.6 | 0.00 | 0.00 | 0.00 | 86 | 1009.2 |
| 20260503202604 | 84 | 134 | 2.6 | 5.2 | 0.00 | 0.00 | 0.00 | 86 | 1009.1 |
| 20260503202102 | 84 | 353 | 0.0 | 3.5 | 0.00 | 0.00 | 0.00 | 86 | 1009.2 |
| 20260503201600 | 84 | 188 | 1.7 | 5.2 | 0.00 | 0.00 | 0.00 | 86 | 1009.3 |
| 20260503201057 | 84 | 35 | 0.9 | 3.5 | 0.00 | 0.00 | 0.00 | 86 | 1009.4 |
| 20260503200553 | 84 | 68 | 1.7 | 3.5 | 0.00 | 0.00 | 0.00 | 85 | 1009.2 |
| 20260503200050 | 84 | 88 | 2.6 | 5.2 | 0.00 | 0.00 | 0.00 | 85 | 1009.3 |
| 20260503195547 | 84 | 41 | 0.0 | 2.6 | 0.00 | 0.00 | 0.00 | 85 | 1009.2 |
| 20260503195044 | 84 | 71 | 0.9 | 2.6 | 0.00 | 0.00 | 0.00 | 85 | 1009.2 |
| 20260503194541 | 84 | 122 | 3.5 | 6.1 | 0.00 | 0.00 | 0.00 | 85 | 1009.4 |
| 20260503194041 | 84 | 96 | 2.6 | 3.5 | 0.00 | 0.00 | 0.00 | 86 | 1009.5 |
| 20260503193538 | 84 | 63 | 0.9 | 1.7 | 0.00 | 0.00 | 0.00 | 86 | 1009.5 |